Wind_Speed
46 46 45 45 44 44 44 44 44 44 45 45 45 44 44 43 42 40 41 40 40 40 39 38 37 37 37 36 35 35 34 35 35 35 35 35 35 35 34 34 33 33 33
45 46 46 46 45 45 45 46 46 45 46 45 46 46 46 45 45 44 43 42 42 41 41 40 39 39 38 37 37 36 36 36 36 36 37 37 36 36 36 36 36 35 36
45 46 46 46 46 46 46 46 47 47 47 46 47 47 48 47 47 46 44 43 43 44 43 43 42 40 39 38 38 38 38 38 38 38 38 38 39 39 38 38 38 37 38
43 45 46 46 46 47 48 48 48 48 48 48 48 48 49 48 48 47 47 46 45 44 45 43 43 43 42 42 41 40 40 39 39 40 40 41 41 40 40 40 40 39 39
42 43 45 46 46 47 47 48 49 49 49 49 49 50 50 50 49 49 49 48 47 46 46 45 45 45 45 44 43 43 42 42 41 42 42 42 42 42 42 41 41 41 41
40 42 43 44 45 46 47 48 48 49 50 50 51 51 51 51 51 51 50 50 49 49 48 47 47 47 47 46 46 45 44 44 44 43 43 43 43 43 43 43 43 42 42
39 40 42 42 44 45 46 47 47 48 49 50 50 51 52 52 52 51 51 51 50 50 50 49 48 48 48 48 47 47 46 46 45 45 44 45 45 45 45 45 45 45 44
39 40 41 42 43 44 46 46 46 47 48 49 50 51 51 52 51 51 51 51 52 51 51 51 50 50 49 49 48 47 47 48 47 46 46 46 46 47 47 47 47 47 46
39 40 41 41 42 43 45 46 46 46 48 49 50 50 51 51 51 51 51 52 52 52 51 52 52 52 51 50 50 49 48 49 49 49 48 48 49 49 49 49 49 48 47
38 39 40 41 41 42 44 45 46 47 47 49 49 50 51 52 52 53 53 53 53 52 52 52 53 53 52 52 52 52 52 51 51 50 50 50 50 51 50 50 50 50 50
38 38 39 40 41 41 42 44 45 46 47 48 49 49 50 51 52 52 53 54 54 53 53 53 53 54 54 54 53 54 54 54 53 52 52 53 53 52 53 53 53 53 52
38 38 39 39 40 41 41 43 44 46 47 48 49 49 49 50 51 52 53 54 54 54 54 55 55 55 55 54 54 54 55 55 55 55 55 55 55 55 55 55 55 55 54
39 39 39 40 40 41 41 42 44 45 47 48 49 50 50 51 51 52 53 54 54 54 55 55 55 56 55 55 55 55 56 56 56 57 57 57 57 57 57 57 57 57 57
38 38 39 40 40 41 42 42 43 44 46 47 48 49 50 51 52 52 52 53 53 54 54 55 55 55 56 56 56 56 56 56 57 57 58 59 59 59 59 59 59 59 58
38 39 39 40 40 41 42 43 43 44 46 46 47 48 50 51 52 53 53 53 52 53 54 55 56 56 56 56 57 57 57 58 58 58 59 59 59 59 60 61 60 60 60
39 39 39 40 40 41 42 42 43 44 45 46 47 48 49 50 51 52 52 53 54 53 53 54 55 56 57 57 58 59 59 59 59 59 59 60 61 61 61 62 62 61 61
38 38 39 39 40 41 41 42 43 44 44 45 46 47 48 49 50 51 52 52 53 54 54 54 54 55 56 58 59 60 60 60 60 60 61 61 61 62 62 62 62 62 62
38 38 39 40 41 42 42 42 43 43 44 45 46 47 48 48 49 50 50 51 52 52 53 54 55 56 56 56 57 58 59 60 60 61 61 61 61 61 61 62 63 63 63
37 38 39 39 39 40 41 42 42 43 43 44 45 46 47 48 48 49 49 50 50 51 52 53 54 55 56 57 57 58 59 59 60 60 61 61 60 60 61 62 62 63 63
37 37 38 39 39 40 40 40 41 41 42 43 44 45 46 46 47 48 48 49 50 50 51 52 53 54 55 56 57 59 59 59 59 59 59 59 58 58 59 60 61 61 62
37 37 38 38 40 40 40 40 40 40 41 42 43 44 45 46 46 47 48 48 49 50 50 52 52 53 54 55 57 58 59 59 59 58 58 57 58 58 57 58 58 59 60
35 36 37 37 38 39 39 40 39 40 40 41 41 42 43 44 45 46 47 47 48 49 50 50 51 52 53 54 54 56 56 57 57 57 57 57 56 56 56 56 56 56 57
33 34 35 35 36 37 38 38 38 39 40 41 41 41 42 43 44 44 46 47 48 48 48 49 49 50 50 51 52 53 54 55 55 55 55 55 54 54 54 55 56 56 56
32 32 33 33 33 35 36 37 38 38 38 39 39 39 40 41 42 43 44 45 46 46 47 47 48 48 48 49 49 50 50 51 51 51 51 52 52 52 53 54 55 56 55
30 30 30 30 31 33 34 36 36 37 37 37 38 39 40 40 41 42 43 43 44 45 45 45 46 46 46 47 47 48 48 48 48 48 49 49 50 51 51 52 52 53 54
28 28 28 29 30 31 32 33 34 35 35 35 37 38 39 40 41 42 43 43 43 43 43 43 43 43 44 45 45 46 46 45 46 47 47 48 49 49 50 50 50 51 51
Wind_Direction
245 245 245 245 245 245 245 245 245 246 246 246 247 246 246 246 246 247 248 250 251 252 253 254 255 256 256 257 259 260 260 260 261 262 262 262 261 260 259 259 259 260 262
246 245 246 246 246 246 245 245 245 245 245 246 247 246 246 247 247 248 249 249 251 252 253 254 255 256 256 257 258 260 260 261 261 262 262 262 261 260 260 260 260 261 261
247 246 246 246 246 246 246 245 245 245 245 246 246 246 247 247 247 249 249 250 251 252 253 254 255 256 256 258 259 260 260 261 261 261 262 262 261 261 261 261 261 262 262
249 247 246 246 246 246 246 246 246 245 246 246 246 246 247 247 247 249 249 249 250 251 252 253 255 256 256 258 260 260 261 261 261 262 263 263 262 261 261 261 261 262 263
249 248 247 246 246 247 246 246 246 246 246 247 247 246 247 247 248 249 249 250 249 250 252 254 255 256 257 257 259 260 261 261 262 262 263 263 262 261 262 262 262 262 264
250 249 248 248 247 247 247 246 246 246 246 246 246 247 248 248 248 249 250 250 249 251 253 254 255 255 255 257 258 259 260 261 262 262 262 262 262 262 262 262 262 263 263
251 250 250 250 249 249 248 247 247 246 246 247 247 248 248 249 249 250 250 250 251 252 253 254 254 255 256 256 258 258 258 260 262 262 263 263 263 263 263 263 263 263 263
252 252 251 251 250 249 249 248 248 246 246 247 247 248 248 249 249 249 250 251 252 253 253 254 255 255 257 256 257 258 259 260 262 262 263 264 264 264 265 264 263 263 264
253 253 252 251 251 249 249 248 247 247 246 246 247 248 248 249 249 249 250 251 253 253 253 253 254 256 257 258 257 258 260 261 262 263 264 264 265 265 265 265 264 264 265
254 254 254 253 251 249 248 248 247 246 246 247 247 248 248 249 250 250 250 251 253 253 254 254 255 256 258 259 259 259 260 261 262 263 263 264 265 265 265 265 264 264 265
254 253 253 253 251 250 249 248 248 247 247 247 247 248 249 250 251 251 252 253 253 253 254 255 256 258 259 259 260 261 261 262 262 263 263 264 265 266 265 265 265 265 266
256 254 253 253 252 251 250 249 249 248 248 248 248 249 249 250 251 251 252 254 254 255 256 257 257 258 259 260 261 261 262 262 263 263 264 264 265 265 265 265 265 265 266
258 257 255 254 253 252 251 251 250 250 249 249 249 250 251 251 252 253 253 254 256 256 257 258 258 258 259 260 261 261 262 263 263 264 265 265 265 265 264 265 265 265 265
259 258 256 254 253 252 251 251 251 251 250 250 250 251 252 253 253 254 255 256 257 258 258 258 258 259 260 260 260 262 263 264 264 265 265 265 265 265 264 264 264 265 266
259 258 257 255 254 253 252 252 252 252 252 252 252 253 254 254 254 255 255 256 257 259 260 259 259 259 260 261 261 262 263 264 264 265 265 265 265 265 265 264 264 265 265
260 260 259 258 256 255 254 253 254 254 254 254 253 254 255 256 256 256 257 257 258 259 260 260 260 260 261 262 263 264 264 265 265 265 265 265 265 265 264 264 264 265 266
260 260 259 259 258 257 255 255 255 255 255 255 255 256 256 257 257 258 258 258 259 259 259 260 261 262 263 263 263 265 265 266 266 266 266 265 265 265 264 263 264 264 266
261 261 260 259 259 258 258 257 256 256 256 256 256 257 257 258 258 259 259 259 259 260 260 261 261 262 263 264 265 265 266 267 267 266 266 265 264 264 263 263 263 264 265
262 262 261 259 258 258 258 258 258 257 257 257 257 257 257 257 258 259 260 260 260 260 261 261 262 263 264 265 266 266 267 268 267 267 267 266 265 264 264 264 264 264 265
264 263 262 259 258 258 258 259 259 259 258 258 258 258 258 258 259 260 260 261 261 262 263 263 264 264 265 266 266 267 267 268 268 268 268 267 265 264 264 264 264 264 264
265 265 264 262 260 259 258 259 259 259 259 259 259 259 259 259 260 260 261 262 263 263 264 265 265 266 267 268 268 269 269 269 268 268 267 266 265 264 264 265 265 264 264
266 266 265 264 261 259 259 259 259 259 260 260 260 260 260 260 260 261 262 263 264 265 266 267 268 269 269 270 270 270 270 269 268 267 267 266 265 264 264 264 265 265 265
268 267 266 264 261 260 260 260 261 261 261 261 261 261 261 261 262 263 264 265 266 267 268 268 269 270 271 271 271 271 271 270 269 268 267 266 265 264 265 265 265 265 265
270 268 266 264 262 261 262 262 262 263 263 263 262 262 263 263 264 265 266 267 268 268 268 269 270 271 271 272 272 272 272 271 270 268 267 266 265 265 265 265 265 265 265
270 269 267 265 264 263 264 264 264 264 264 264 264 265 265 265 266 266 267 268 268 269 270 270 271 271 271 272 273 273 272 272 270 269 267 266 266 266 266 265 265 265 265
269 268 268 268 268 267 267 266 266 266 266 266 267 267 267 267 267 267 268 269 270 270 271 272 272 273 273 273 273 273 273 272 271 270 269 268 268 268 267 266 266 266 265
Height
5696 5699 5701 5704 5707 5710 5713 5716 5719 5722 5724 5727 5729 5732 5734 5737 5740 5743 5745 5747 5749 5751 5753 5754 5755 5757 5758 5759 5760 5761 5762 5762 5763 5764 5764 5765 5765 5766 5767 5768 5768 5769 5770
5684 5687 5690 5693 5696 5699 5702 5704 5707 5710 5713 5716 5719 5722 5724 5727 5730 5732 5735 5737 5739 5741 5743 5744 5746 5747 5749 5750 5751 5752 5753 5753 5754 5755 5755 5756 5757 5757 5758 5759 5759 5760 5761
5672 5675 5678 5681 5684 5687 5690 5693 5695 5698 5701 5704 5707 5710 5713 5716 5719 5721 5724 5726 5728 5730 5733 5734 5736 5738 5739 5740 5741 5742 5743 5744 5745 5745 5746 5746 5747 5748 5749 5750 5750 5751 5751
5661 5663 5666 5669 5672 5675 5678 5681 5684 5686 5689 5692 5696 5699 5702 5705 5708 5710 5713 5715 5718 5720 5721 5723 5725 5727 5729 5730 5731 5732 5733 5734 5734 5735 5736 5737 5737 5738 5739 5740 5740 5741 5741
5649 5651 5654 5657 5660 5662 5665 5668 5671 5674 5677 5680 5683 5687 5690 5693 5696 5698 5701 5703 5706 5708 5710 5712 5714 5716 5717 5719 5720 5721 5722 5723 5724 5724 5725 5726 5726 5727 5728 5729 5730 5730 5730
5638 5640 5642 5645 5648 5650 5653 5656 5659 5662 5665 5668 5671 5674 5677 5680 5683 5686 5689 5691 5694 5696 5698 5700 5702 5704 5706 5707 5709 5710 5711 5711 5712 5713 5713 5714 5715 5716 5716 5717 5718 5719 5719
5627 5629 5631 5634 5636 5638 5641 5644 5646 5649 5652 5655 5658 5661 5664 5667 5670 5673 5676 5679 5681 5684 5686 5688 5690 5692 5693 5695 5696 5698 5698 5699 5700 5701 5701 5702 5703 5704 5704 5705 5706 5707 5708
5615 5617 5620 5622 5624 5626 5628 5631 5634 5636 5639 5642 5645 5648 5651 5654 5657 5660 5663 5666 5668 5671 5673 5675 5677 5679 5681 5682 5684 5685 5686 5687 5688 5688 5689 5690 5690 5691 5692 5693 5693 5694 5695
5604 5606 5608 5610 5612 5614 5616 5618 5621 5624 5626 5629 5632 5635 5638 5641 5644 5647 5650 5652 5655 5657 5659 5662 5664 5666 5667 5669 5670 5672 5673 5674 5675 5675 5676 5677 5677 5678 5678 5679 5679 5681 5682
5593 5594 5596 5597 5599 5601 5604 5606 5608 5611 5614 5616 5619 5622 5625 5628 5631 5633 5636 5639 5641 5643 5646 5648 5650 5652 5653 5655 5657 5658 5659 5660 5661 5662 5663 5663 5664 5664 5664 5665 5665 5666 5667
5581 5582 5584 5585 5587 5589 5592 5594 5596 5599 5601 5604 5607 5610 5612 5615 5617 5620 5622 5625 5627 5629 5632 5634 5636 5638 5639 5641 5642 5644 5645 5646 5647 5648 5648 5649 5650 5650 5650 5650 5651 5651 5652
5570 5571 5572 5574 5576 5577 5580 5582 5584 5586 5589 5591 5594 5597 5599 5601 5604 5606 5609 5611 5613 5615 5617 5619 5621 5623 5624 5626 5627 5629 5630 5631 5632 5633 5633 5634 5634 5635 5635 5635 5636 5636 5636
5558 5560 5561 5563 5564 5566 5568 5570 5572 5574 5576 5579 5581 5584 5586 5588 5590 5593 5595 5597 5599 5601 5603 5604 5606 5608 5609 5611 5612 5613 5614 5615 5616 5617 5618 5618 5618 5619 5619 5620 5620 5620 5620
5546 5548 5549 5551 5552 5554 5556 5558 5560 5562 5564 5566 5568 5571 5573 5575 5577 5579 5581 5583 5584 5586 5588 5589 5591 5593 5594 5595 5597 5598 5599 5599 5600 5600 5601 5601 5602 5602 5603 5603 5604 5604 5604
5535 5536 5538 5539 5540 5542 5544 5545 5547 5549 5551 5553 5555 5557 5559 5561 5563 5565 5566 5568 5570 5571 5572 5574 5575 5577 5578 5579 5580 5581 5582 5583 5583 5583 5584 5584 5584 5585 5585 5586 5587 5587 5588
5523 5524 5525 5527 5528 5529 5531 5533 5535 5536 5538 5540 5542 5544 5546 5547 5549 5550 5552 5554 5555 5556 5558 5559 5560 5561 5562 5563 5564 5564 5565 5566 5566 5566 5566 5566 5567 5567 5568 5569 5569 5570 5571
5511 5512 5513 5514 5516 5517 5518 5520 5522 5523 5525 5527 5528 5530 5532 5533 5535 5536 5538 5539 5540 5541 5542 5543 5544 5545 5546 5546 5547 5548 5548 5549 5549 5549 5549 5549 5549 5549 5550 5551 5552 5552 5552
5500 5500 5501 5502 5504 5504 5506 5507 5509 5510 5512 5513 5515 5516 5518 5519 5521 5522 5523 5524 5525 5526 5527 5528 5529 5530 5530 5530 5530 5530 5530 5531 5531 5531 5531 5531 5531 5531 5532 5533 5534 5534 5535
5488 5489 5490 5490 5491 5492 5493 5495 5496 5498 5499 5500 5501 5503 5504 5505 5506 5507 5508 5509 5509 5510 5511 5512 5513 5513 5514 5514 5513 5513 5513 5514 5514 5513 5513 5512 5513 5514 5514 5515 5516 5517 5517
5477 5477 5478 5479 5480 5481 5481 5483 5484 5485 5486 5487 5488 5489 5490 5491 5492 5493 5494 5494 5494 5495 5496 5496 5497 5497 5498 5497 5497 5496 5497 5497 5497 5497 5496 5495 5495 5495 5495 5496 5497 5498 5499
5466 5466 5466 5467 5468 5469 5470 5471 5472 5473 5473 5474 5475 5476 5476 5477 5478 5478 5479 5479 5479 5480 5480 5481 5481 5481 5481 5481 5480 5479 5479 5479 5479 5479 5479 5478 5477 5477 5477 5478 5479 5480 5480
5455 5455 5454 5455 5455 5456 5457 5459 5460 5460 5461 5461 5462 5463 5463 5463 5464 5464 5464 5464 5465 5465 5465 5465 5465 5465 5464 5464 5463 5462 5461 5461 5461 5462 5461 5461 5460 5460 5460 5461 5461 5462 5462
5444 5444 5444 5444 5445 5445 5445 5447 5448 5448 5448 5449 5450 5450 5450 5450 5450 5450 5451 5451 5450 5450 5450 5450 5450 5450 5449 5448 5447 5446 5445 5444 5443 5444 5444 5443 5443 5443 5444 5444 5444 5444 5445
5434 5433 5433 5433 5434 5434 5434 5435 5436 5437 5437 5437 5437 5437 5437 5437 5437 5437 5437 5437 5436 5436 5436 5435 5435 5435 5434 5433 5431 5430 5429 5428 5427 5427 5427 5427 5427 5427 5427 5427 5427 5428 5428
5424 5423 5423 5423 5424 5424 5424 5424 5424 5425 5425 5425 5425 5425 5425 5425 5425 5424 5424 5423 5423 5422 5422 5421 5421 5420 5420 5418 5417 5415 5414 5413 5412 5411 5411 5411 5411 5411 5411 5412 5412 5412 5412
5415 5414 5414 5414 5414 5414 5413 5413 5413 5413 5413 5413 5413 5413 5413 5412 5412 5411 5411 5410 5410 5409 5408 5407 5407 5406 5405 5404 5402 5401 5399 5398 5397 5396 5396 5397 5397 5396 5396 5396 5396 5396 5397